Location: Godzisko
(49.9648°N, 19.4576°E)
Time: 06:50:34
(UTC+00:00)

Cosmos 1674 Rocket - Pass Details

Date: 20 April 2021
Orbit: 604 x 629 km, 82.5° (Epoch: 06 May)

Event Time Altitude Azimuth Distance (km) Brightness Sun altitude
Exits shadow 02:40:00 - 191° (SSW) 2,679 6.4 -9.5°
Reaches altitude 10° 02:41:46 10° 193° (SSW) 1,962 5.7 -9.2°
Maximum altitude 02:46:06 80° 280° (W) 631 3.5 -8.6°
Drops below altitude 10° 02:50:32 10° 8° (N) 1,995 6.7 -8.0°
Sets 02:52:47 0° 10° (N) 2,910 7.6 -7.7°
